{"data":{"norad_id":44741,"epoch":"2026-09-20T06:00:02.000160Z","epoch_age_seconds":39713,"freshness":"FRESH","line1":"1 44741U 19074AE  26263.25002315  .00121203  16570-4  37613-3 0  9993","line2":"2 44741  53.0367 302.8937 0006318   9.5061 115.9914 15.91468337  5920","mean_motion":15.91468337,"eccentricity":0.0006318,"inclination_deg":53.0367,"raan_deg":302.8937,"arg_perigee_deg":9.5061,"mean_anomaly_deg":115.9914,"bstar":0.00037613,"rev_number":592,"period_min":90.482478760116,"perigee_km":293.95509612649,"apogee_km":302.39128168119,"semimajor_km":6676.3101889038,"source":"CELESTRAK","updated_at":"2026-09-20T09:00:38.218876Z"}}